Total_Precipitation_Accumulation
0.01 0.02 0.03 0.06 0.08 0.11 0.14 0.16 0.18 0.20 0.25 0.28 0.28 0.27 0.27 0.30 0.31 0.28 0.28 0.25 0.20 0.17 0.13 0.09 0.07 0.05 0.04 0.03 0.03 0.03 0.03 0.03 0.02 0.02 0.02 0.00 0.00 0.00 0.00 0.01 0.00 0.01 0.01
0.01 0.01 0.02 0.03 0.05 0.08 0.09 0.12 0.14 0.19 0.20 0.21 0.27 0.31 0.38 0.44 0.45 0.41 0.34 0.30 0.28 0.26 0.20 0.14 0.13 0.12 0.09 0.06 0.06 0.07 0.06 0.05 0.05 0.06 0.08 0.04 0.01 0.01 0.01 0.01 0.01 0.01 0.01
0.00 0.01 0.02 0.03 0.03 0.05 0.06 0.08 0.11 0.14 0.17 0.22 0.33 0.40 0.44 0.40 0.38 0.32 0.28 0.29 0.31 0.32 0.29 0.25 0.22 0.19 0.17 0.12 0.12 0.14 0.14 0.15 0.15 0.14 0.18 0.15 0.08 0.05 0.02 0.02 0.02 0.02 0.02
0.00 0.00 0.01 0.01 0.02 0.04 0.06 0.08 0.10 0.11 0.13 0.18 0.19 0.23 0.27 0.26 0.26 0.31 0.35 0.38 0.37 0.36 0.34 0.33 0.30 0.28 0.25 0.22 0.24 0.28 0.29 0.28 0.24 0.20 0.18 0.19 0.18 0.20 0.13 0.05 0.04 0.04 0.04
0.00 0.00 0.00 0.01 0.01 0.03 0.05 0.06 0.07 0.08 0.10 0.13 0.14 0.18 0.20 0.23 0.27 0.29 0.31 0.33 0.33 0.33 0.34 0.35 0.36 0.35 0.33 0.35 0.39 0.40 0.40 0.39 0.37 0.33 0.31 0.30 0.27 0.25 0.28 0.17 0.09 0.09 0.10
0.00 0.00 0.00 0.00 0.00 0.01 0.02 0.04 0.05 0.05 0.06 0.09 0.11 0.14 0.16 0.21 0.23 0.24 0.25 0.28 0.31 0.30 0.30 0.32 0.35 0.38 0.40 0.41 0.45 0.49 0.52 0.53 0.53 0.50 0.45 0.44 0.41 0.35 0.39 0.36 0.24 0.21 0.18
0.00 0.00 0.00 0.00 0.00 0.01 0.01 0.02 0.04 0.05 0.05 0.07 0.08 0.10 0.13 0.19 0.20 0.22 0.24 0.26 0.26 0.23 0.26 0.32 0.36 0.41 0.45 0.49 0.50 0.50 0.51 0.56 0.61 0.62 0.61 0.60 0.57 0.55 0.60 0.64 0.53 0.43 0.33
0.00 0.00 0.00 0.00 0.00 0.00 0.00 0.01 0.02 0.03 0.04 0.06 0.07 0.07 0.08 0.12 0.14 0.17 0.18 0.21 0.23 0.27 0.31 0.34 0.37 0.39 0.41 0.44 0.45 0.47 0.49 0.55 0.60 0.65 0.67 0.68 0.64 0.66 0.70 0.77 0.84 0.76 0.59
0.00 0.00 0.00 0.00 0.00 0.00 0.00 0.01 0.01 0.02 0.04 0.05 0.06 0.06 0.06 0.07 0.10 0.11 0.12 0.15 0.18 0.21 0.24 0.28 0.30 0.31 0.33 0.35 0.38 0.40 0.41 0.44 0.48 0.52 0.57 0.61 0.59 0.61 0.65 0.73 0.87 1.00 0.89
0.00 0.00 0.00 0.00 0.00 0.00 0.01 0.01 0.01 0.02 0.04 0.05 0.05 0.05 0.05 0.06 0.08 0.09 0.08 0.09 0.12 0.14 0.17 0.19 0.21 0.23 0.24 0.24 0.26 0.26 0.26 0.29 0.32 0.37 0.42 0.46 0.48 0.52 0.57 0.63 0.71 0.85 0.95
0.00 0.00 0.00 0.00 0.00 0.01 0.01 0.02 0.02 0.03 0.04 0.05 0.05 0.05 0.05 0.06 0.07 0.07 0.08 0.09 0.10 0.10 0.11 0.13 0.15 0.15 0.15 0.15 0.15 0.16 0.16 0.18 0.22 0.26 0.31 0.36 0.40 0.44 0.47 0.51 0.56 0.63 0.74
0.00 0.00 0.00 0.00 0.01 0.02 0.02 0.03 0.03 0.04 0.04 0.04 0.05 0.06 0.06 0.06 0.07 0.07 0.07 0.07 0.08 0.08 0.08 0.08 0.09 0.10 0.10 0.10 0.10 0.10 0.11 0.13 0.15 0.18 0.22 0.27 0.30 0.36 0.41 0.46 0.47 0.49 0.52
0.02 0.01 0.01 0.01 0.01 0.02 0.03 0.04 0.04 0.04 0.04 0.05 0.05 0.06 0.06 0.06 0.07 0.07 0.07 0.06 0.06 0.06 0.06 0.05 0.06 0.06 0.06 0.07 0.08 0.09 0.11 0.13 0.15 0.18 0.23 0.28 0.33 0.38 0.41 0.43 0.44 0.44 0.47
0.04 0.03 0.03 0.04 0.04 0.04 0.04 0.05 0.05 0.04 0.04 0.05 0.06 0.07 0.06 0.07 0.07 0.08 0.08 0.07 0.06 0.06 0.06 0.06 0.06 0.06 0.07 0.08 0.10 0.11 0.14 0.17 0.20 0.23 0.28 0.31 0.33 0.34 0.33 0.34 0.36 0.40 0.41
0.05 0.04 0.04 0.04 0.04 0.04 0.04 0.04 0.04 0.06 0.07 0.08 0.08 0.08 0.08 0.09 0.10 0.10 0.10 0.09 0.08 0.07 0.07 0.08 0.08 0.09 0.09 0.12 0.15 0.18 0.22 0.26 0.29 0.31 0.31 0.30 0.28 0.26 0.25 0.27 0.28 0.31 0.35
0.05 0.04 0.04 0.05 0.04 0.04 0.04 0.04 0.05 0.06 0.07 0.09 0.10 0.10 0.10 0.11 0.11 0.12 0.11 0.11 0.12 0.13 0.13 0.14 0.15 0.17 0.19 0.27 0.26 0.24 0.28 0.32 0.32 0.30 0.26 0.24 0.22 0.19 0.19 0.20 0.22 0.28 0.37
0.04 0.03 0.03 0.04 0.04 0.04 0.05 0.06 0.07 0.08 0.10 0.11 0.12 0.13 0.16 0.17 0.15 0.16 0.18 0.19 0.20 0.23 0.28 0.30 0.30 0.33 0.39 0.41 0.32 0.28 0.24 0.24 0.24 0.22 0.19 0.17 0.15 0.14 0.12 0.11 0.15 0.19 0.27
0.03 0.02 0.02 0.03 0.03 0.03 0.03 0.04 0.06 0.08 0.13 0.17 0.19 0.19 0.20 0.24 0.25 0.25 0.28 0.29 0.32 0.38 0.44 0.46 0.45 0.42 0.41 0.36 0.29 0.23 0.17 0.14 0.12 0.09 0.08 0.07 0.06 0.06 0.10 0.16 0.20 0.14 0.11
0.05 0.03 0.03 0.04 0.03 0.04 0.05 0.05 0.06 0.09 0.15 0.20 0.23 0.23 0.25 0.28 0.32 0.37 0.41 0.40 0.40 0.43 0.44 0.41 0.37 0.33 0.30 0.22 0.15 0.12 0.10 0.09 0.06 0.04 0.04 0.05 0.04 0.06 0.18 0.26 0.26 0.14 0.05
0.08 0.07 0.07 0.07 0.07 0.09 0.11 0.12 0.14 0.16 0.19 0.20 0.24 0.25 0.27 0.32 0.36 0.40 0.45 0.47 0.43 0.38 0.33 0.27 0.22 0.18 0.15 0.12 0.08 0.06 0.05 0.04 0.04 0.04 0.03 0.03 0.05 0.12 0.25 0.26 0.24 0.13 0.05
0.08 0.10 0.13 0.15 0.16 0.19 0.20 0.22 0.23 0.23 0.24 0.25 0.28 0.30 0.31 0.34 0.36 0.38 0.37 0.35 0.31 0.24 0.18 0.14 0.10 0.07 0.05 0.04 0.03 0.03 0.05 0.06 0.08 0.06 0.03 0.02 0.09 0.19 0.23 0.19 0.09 0.10 0.18
0.10 0.12 0.15 0.18 0.21 0.23 0.25 0.26 0.28 0.29 0.28 0.28 0.29 0.30 0.30 0.27 0.24 0.22 0.21 0.18 0.14 0.10 0.07 0.05 0.03 0.02 0.01 0.01 0.01 0.03 0.07 0.11 0.12 0.08 0.05 0.06 0.14 0.16 0.11 0.06 0.06 0.13 0.13
0.10 0.11 0.12 0.13 0.14 0.18 0.23 0.26 0.27 0.26 0.24 0.23 0.23 0.21 0.18 0.16 0.12 0.09 0.07 0.06 0.04 0.04 0.03 0.02 0.01 0.01 0.00 0.00 0.01 0.03 0.08 0.13 0.12 0.09 0.12 0.14 0.11 0.06 0.02 0.03 0.05 0.06 0.05
0.06 0.07 0.08 0.08 0.09 0.10 0.13 0.15 0.15 0.15 0.13 0.12 0.11 0.09 0.08 0.07 0.05 0.03 0.02 0.02 0.01 0.01 0.01 0.01 0.01 0.01 0.01 0.00 0.01 0.05 0.08 0.09 0.10 0.12 0.12 0.07 0.03 0.02 0.02 0.02 0.02 0.03 0.07
0.05 0.04 0.04 0.04 0.04 0.04 0.05 0.05 0.05 0.05 0.05 0.04 0.03 0.03 0.02 0.02 0.02 0.02 0.01 0.01 0.01 0.01 0.01 0.01 0.02 0.03 0.03 0.03 0.10 0.13 0.12 0.14 0.15 0.14 0.05 0.01 0.01 0.02 0.02 0.01 0.01 0.03 0.06
0.06 0.04 0.03 0.03 0.02 0.02 0.02 0.02 0.02 0.02 0.02 0.02 0.02 0.01 0.01 0.01 0.01 0.01 0.01 0.02 0.01 0.01 0.01 0.01 0.02 0.03 0.04 0.07 0.10 0.12 0.16 0.17 0.13 0.07 0.02 0.02 0.03 0.04 0.04 0.04 0.05 0.04 0.08